KQ4KIJ-13 Weather Reports


time (UTC)temp
F
wind
direction
speed
knots
gust
knots
rain 1hr
in
rain 24hr
in
rain mn
in
humidity
%
barometer
mb
20260509030333 56 254 0.0 3.5 0.00 0.00 0.00 78 1016.8
20260509023335 57 104 0.0 5.2 0.00 0.00 0.00 76 1016.5
20260509020332 58 99 2.6 4.3 0.00 0.00 0.00 74 1016.8
20260509010332 59 82 0.9 5.2 0.00 0.00 0.00 69 1016.4
20260509003335 60 250 3.5 9.6 0.00 0.00 0.00 67 1016.2
20260509000333 61 129 0.9 11.3 0.00 0.00 0.00 65 1015.9
20260508233335 62 187 1.7 6.1 0.00 0.00 0.00 64 1016.1
20260508230332 63 26 2.6 8.7 0.00 0.00 0.00 61 1015.3
20260508223335 64 74 1.7 10.4 0.00 0.00 0.00 59 1015.3
20260508220332 65 174 3.5 11.3 0.00 0.00 0.00 56 1015.2
20260508214728 65 46 1.7 13.9 0.00 0.00 0.00 52 1015.6
20260508210332 66 120 0.9 9.6 0.00 0.00 0.00 52 1015.1
20260508203335 65 56 3.5 10.4 0.00 0.00 0.00 52 1015.2
20260508200329 65 52 1.7 12.2 0.00 0.00 0.00 52 1015.9
20260508193334 65 267 4.3 13.0 0.00 0.00 0.00 50 1016.3
20260508190325 65 184 2.6 9.6 0.00 0.00 0.00 50 1016.9
20260508183326 65 226 6.1 11.3 0.00 0.00 0.00 50 1017.2
20260508180321 65 149 6.1 10.4 0.00 0.00 0.00 49 1017.2
20260508174656 66 112 1.7 9.6 0.00 0.00 0.00 48 1017.7
20260508170318 64 259 1.7 9.6 0.00 0.00 0.00 46 1018.5
20260508163331 62 161 2.6 9.6 0.00 0.00 0.00 44 1019.1
20260508160314 62 172 3.5 6.1 0.00 0.00 0.00 44 1019.4
20260508154711 61 141 0.9 6.1 0.00 0.00 0.00 48 1019.7
20260508151659 59 244 3.5 7.0 0.00 0.00 0.00 48 1019.9
20260508143310 58 65 2.6 5.2 0.00 0.00 0.00 53 1020.4
20260508140306 55 91 2.6 4.3 0.00 0.00 0.00 62 1020.4
20260508133308 55 263 0.9 4.3 0.00 0.00 0.00 73 1020.5
20260508131648 50 201 0.0 4.3 0.00 0.00 0.00 88 1020.5
20260508123305 47 172 1.7 3.5 0.00 0.00 0.00 99 1020.3
20260508120259 45 130 0.0 2.6 0.00 0.00 0.00 99 1020.2
20260508113300 45 218 1.7 5.2 0.00 0.00 0.00 99 1019.7
20260508110255 45 139 1.7 5.2 0.00 0.00 0.00 99 1019.1
20260508103257 44 102 1.7 2.6 0.00 0.00 0.00 99 1018.7
20260508100251 44 52 0.9 3.5 0.00 0.00 0.00 99 1018.4
20260508093253 44 100 0.9 2.6 0.00 0.00 0.00 99 1018.2
20260508090251 45 107 0.0 1.7 0.00 0.00 0.00 99 1018.0
20260508083252 46 114 0.9 4.3 0.00 0.00 0.00 99 1017.8
20260508080247 46 146 1.7 3.5 0.00 0.00 0.00 99 1017.5
20260508073249 46 99 1.7 5.2 0.00 0.00 0.00 99 1017.7
20260508070246 46 116 1.7 5.2 0.00 0.00 0.00 99 1017.3
20260508063247 46 76 0.0 3.5 0.00 0.00 0.00 99 1017.3
20260508060243 46 112 1.7 2.6 0.00 0.00 0.00 99 1017.5
20260508053245 47 78 2.6 3.5 0.00 0.00 0.00 99 1017.6
20260508043244 47 113 0.0 3.5 0.00 0.00 0.00 99 1017.3
20260508040238 47 108 0.9 1.7 0.00 0.00 0.00 99 1017.2
20260508034620 47 81 0.0 2.6 0.00 0.00 0.00 98 1017.6